Home   Weather   Gafsa   Past weeks
Flag for Tunisia

Past Weather in Gafsa, Tunisia — Yesterday and Last 2 Weeks

Now
91 °F

Passing clouds.


Feels Like: 88 °F
Forecast: 94 / 70 °F
Wind: 17 mph from North

Location: Gafsa Airport

Current Time: Jul 16, 2019 at 7:52:55 pm

Latest Report: Jul 16, 2019 at 7:00 pm


Visibility: N/A

Pressure: 29.83 "Hg

Humidity: 21%

Dew Point: 46 °F

Location of GafsaLocation

Past Weather in Gafsa — Graph

°F

Gafsa Temperature Yesterday

Maximum temperature yesterday: 102 °F (at 3:00 pm)
Minimum temperature yesterday: 81 °F (at 5:00 am)
Average temperature yesterday: 91 °F

High & Low Weather Summary for the Past Weeks

 TemperatureHumidityPressure
High113 °F (Jul 14, 4:00 pm)83% (Jul 2, 4:00 am)29.98 "Hg (Jul 2, 4:00 am)
Low70 °F (Jul 2, 4:00 am)4% (Jul 10, 4:00 pm)29.59 "Hg (Jul 14, 6:00 pm)
Average92 °F28%29.86 "Hg
* Reported Jul 1 6:00 pm — Jul 16 6:00 pm, Gafsa. Weather by CustomWeather, © 2019

Note: Actual official high and low records may vary slightly from our data, if they occured in-between our weather recording intervals... More about our weather records

Advertising

Gafsa Weather History for the Previous 24 Hours

Scroll right to see more
 ConditionsComfort  
Time TempWeatherWind HumidityBarometerVisibility
6:00 pm
Tue, Jul 16
93 °FPassing clouds.16 mph19%29.80 "HgN/A
5:00 pm95 °FPassing clouds.16 mph18%29.80 "HgN/A
4:00 pm95 °FPassing clouds.15 mph15%29.77 "HgN/A
3:00 pm95 °FPassing clouds.17 mph14%29.80 "HgN/A
2:00 pm95 °FPassing clouds.14 mph12%29.80 "HgN/A
1:00 pm95 °FPassing clouds.13 mph18%29.83 "HgN/A
12:00 pm91 °FPassing clouds.12 mph21%29.86 "HgN/A
11:00 am90 °FPassing clouds.10 mph29%29.86 "HgN/A
10:00 am86 °FPassing clouds.10 mph31%29.86 "HgN/A
9:00 am84 °FPassing clouds.9 mph45%29.86 "HgN/A
8:00 am81 °FClear.5 mph54%29.86 "Hg5 mi
7:00 am79 °FClear.3 mph65%29.83 "Hg5 mi
6:00 am77 °FClear.No wind74%29.83 "Hg5 mi
5:00 am77 °FClear.2 mph74%29.80 "Hg5 mi
4:00 am77 °FClear.3 mph74%29.80 "Hg5 mi
1:00 am81 °FPassing clouds.8 mph62%29.80 "Hg5 mi
12:00 am82 °FPassing clouds.10 mph51%29.80 "Hg5 mi
11:00 pm
Mon, Jul 15
86 °FPassing clouds.17 mph43%29.80 "Hg5 mi
10:00 pm88 °FPassing clouds.15 mph35%29.80 "Hg5 mi
9:00 pm91 °FPassing clouds.7 mph32%29.74 "Hg5 mi
8:00 pm93 °FPassing clouds.12 mph30%29.71 "Hg5 mi
7:00 pm97 °FScattered clouds.15 mph22%29.68 "Hg5 mi
Weather by CustomWeather, © 2019

See weather overview

LIVE PARTIAL LUNAR ECLIPSE – Watch the eclipse as it happens